Location: Williams Lake
(52.1170°N, 122.1500°W)
Time: 04:59:54
(UTC-08:00)

Daily predictions for brighter satellites

Satellite Brightness Start Highest point End
(mag) Time Altitude Azimuth Time Altitude Azimuth Time Altitude Azimuth
ADEOS II 4.4 03:46:39 10° NNE 03:48:09 18° NE 03:48:09 18° NE
SeaSat 1 4.4 04:02:27 10° NE 04:04:58 26° ENE 04:04:58 26° ENE
SL-16 R/B 3.3 04:17:40 41° ESE 04:17:40 41° ESE 04:21:35 10° SE
USA 229 DEB 4.0 04:21:03 64° SE 04:21:03 64° SE 04:26:59 10° SE
USA 229 4.0 04:21:07 64° SE 04:21:07 64° SE 04:27:05 10° SE
Tsikada Rocket 4.5 04:15:06 10° N 04:21:27 58° ENE 04:27:42 10° SSE
Cosmos 2297 Rocket 3.6 04:28:51 26° SSE 04:31:03 35° ESE 04:36:10 10° NE
NOSS 3-1 (A) 4.3 04:31:28 49° N 04:33:04 57° NNE 04:41:00 10° ESE
ATLAS CENTAUR R/B 4.0 04:41:29 15° NNE 04:41:29 15° NNE 04:42:23 10° NNE
ATLAS 2AS CENTAUR R/B 3.9 04:38:44 34° NNW 04:41:12 41° NNE 04:48:41 10° E
Cosmos 2227 Rocket 2.7 04:42:33 51° SE 04:43:17 55° ESE 04:48:48 10° NE
Cosmos 2061 Rocket 4.4 04:48:01 49° N 04:48:01 49° N 04:52:27 10° N
Cosmos 1802 Rocket 4.0 04:54:58 68° NNW 04:54:58 68° NNW 05:00:41 10° N
Cosmos 1725 Rocket 4.2 04:48:25 10° S 04:54:38 71° E 05:00:55 10° NNE
Cosmos 2082 Rocket 4.5 04:54:48 12° N 04:54:48 12° N 04:56:35 10° NNE
Cosmos 1354 Rocket 4.0 05:03:56 73° NNE 05:03:56 73° NNE 05:08:40 10° NNE
ADEOS Rocket 4.3 04:57:21 10° N 05:02:46 35° NW 05:02:46 35° NW
Cosmos 489 Rocket 4.3 05:07:58 69° WSW 05:08:33 74° WNW 05:14:52 10° NNE
Cosmos 2082 3.8 05:09:35 43° SSW 05:11:31 77° ESE 05:17:16 10° NNE
SL-8 R/B 4.2 05:12:12 52° SSE 05:12:12 52° SSE 05:16:25 10° ESE
USA 234 3.1 05:06:25 10° ESE 05:13:01 87° SSW 05:14:46 53° WNW
NOSS 3-1 (C) 3.9 05:12:11 43° NW 05:15:01 90° NE 05:23:13 10° SE
SL-08 R/B 4.3 05:12:59 43° SSW 05:15:05 74° WNW 05:21:12 10° N
Cosmos 1818 3.4 05:15:30 77° W 05:15:47 81° NW 05:21:18 10° NE
Cosmos 1603 4.0 05:17:22 32° NNW 05:19:55 63° NE 05:25:30 10° SE
Cosmos 1328 4.4 05:21:08 51° SE 05:21:08 51° SE 05:24:15 10° SSE
Cosmos 2219 4.0 05:26:27 34° NNW 05:26:27 34° NNW 05:30:52 10° NNE
Cosmos 2058 3.7 05:24:07 24° N 05:26:22 51° ENE 05:30:24 10° SSE
ADEOS II 3.4 05:26:31 10° N 05:29:06 26° NNW 05:29:06 26° NNW
DMSP B5D1-3 4.4 05:26:30 10° SSE 05:31:38 79° WSW 05:34:14 30° NNW
Cosmos 1842 Rocket 3.6 05:32:16 10° S 05:36:35 75° E 05:40:59 10° NNE
COSMO-SKYMED 1 3.5 05:33:01 10° S 05:35:37 33° SSW 05:35:37 33° SSW
Cosmos 2016 Rocket 4.2 05:37:49 44° W 05:38:33 46° WNW 05:44:38 10° N
Genesis I 3.0 05:43:33 80° W 05:43:43 83° SW 05:47:39 10° SE
Cosmos 2151 2.8 05:42:58 40° NNW 05:44:26 83° W 05:48:40 10° S
NOAA 6 3.9 05:39:25 10° NNE 05:44:38 73° WNW 05:49:48 10° SSW
SeaSat 1 2.8 05:40:01 10° NNE 05:44:41 44° NW 05:44:48 44° NW
Cosmos 2233 Rocket 3.9 05:38:48 10° SSW 05:45:04 83° W 05:51:26 10° N
Cosmos 1500 Rocket 3.7 05:49:00 51° WSW 05:49:00 51° WSW 05:53:04 10° S
CSL-04 Rocket 4.2 05:44:20 10° NNE 05:49:36 57° ESE 05:54:48 10° S
Cosmos 968 Rocket 3.8 05:45:20 10° SSW 05:50:33 68° ESE 05:55:49 10° NNE
Helios 1B rocket 3.9 05:47:47 10° SE 05:51:33 36° ENE 05:55:21 10° N
Cosmos 1356 Rocket 4.1 05:47:43 11° N 05:51:34 52° ENE 05:55:35 10° SSE
Cosmos 1703 3.9 05:48:29 12° N 05:52:06 55° ENE 05:55:58 10° SSE
Cosmos 773 Rocket 3.9 05:50:36 24° NNW 05:53:50 81° WSW 05:59:07 10° SSE
Okean-O 4.1 05:50:33 10° N 05:52:33 23° NNW 05:52:33 23° NNW
Feng Yun 1-1 Rocket 4.4 05:51:39 10° N 05:56:46 44° WNW 05:59:22 26° WSW
SL-16 R/B 2.8 05:59:36 33° W 05:59:56 33° WSW 06:04:55 10° SSW
Cosmos 1340 Rocket 2.6 06:00:34 31° NNW 06:02:20 70° W 06:06:15 10° S
Cosmos 1503 Rocket 4.5 06:01:46 35° WNW 06:02:26 37° NW 06:07:15 10° NNE
Sich 1 3.7 06:03:45 10° N 06:08:06 56° ENE 06:12:23 10° SSE
Cosmos 1633 Rocket 3.9 06:04:42 10° N 06:09:00 51° ENE 06:13:15 10° SSE
Cosmos 220 Rocket 3.9 06:04:55 10° SSW 06:09:20 82° WNW 06:13:45 10° NNE
Cosmos 1184 Rocket 3.4 06:07:06 14° N 06:09:54 56° ENE 06:13:10 10° SSE
ISS -1.1 06:11:20 14° SSW 06:11:20 14° SSW 06:12:46 10° S
Meteor 1-11 4.3 06:07:13 10° NNW 06:12:54 57° W 06:18:35 10° S
SL-14 R/B 3.7 06:13:54 34° WNW 06:14:51 39° W 06:18:39 10° SSW
Cosmos 2297 Rocket 2.3 06:10:45 17° WSW 06:14:57 51° NW 06:20:30 10° NNE
Cosmos 1271 Rocket 2.6 06:12:43 10° SSW 06:16:34 86° WNW 06:20:22 10° NNE
ATLAS CENTAUR R/B 3.3 06:17:47 16° NNW 06:18:29 17° NNW 06:21:15 10° NNE
Cosmos 1777 Rocket 4.4 06:15:58 10° SSW 06:21:08 67° ESE 06:26:19 10° NNE
Meteor 1-28 Rocket 4.2 06:17:58 10° SSW 06:20:40 26° WSW 06:20:40 26° WSW
IDEFIX/ARIANE 42P 3.2 06:17:50 10° NNE 06:23:05 60° E 06:28:17 10° S
Meteor 1-4 Rocket 3.0 06:20:32 10° SW 06:24:05 40° WNW 06:27:43 10° N
NOSS 3-1 (A) 4.2 06:18:56 20° NW 06:24:16 57° SW 06:32:17 10° SSE
YAOGAN 1 3.7 06:22:12 10° NNE 06:26:25 48° E 06:30:36 10° S
Cosmos 2227 Rocket 2.8 06:24:25 20° W 06:27:37 36° NW 06:32:50 10° NNE
Meteor 1-16 Rocket 4.1 06:23:40 10° SSW 06:29:00 61° WNW 06:34:18 10° N
CZ-4 R/B 1.7 06:25:08 10° NNE 06:29:10 71° ESE 06:33:14 10° S
ERBS 3.9 06:30:40 20° WSW 06:31:13 20° SW 06:33:48 10° S
ATLAS 2AS CENTAUR R/B 3.2 06:26:09 14° NW 06:33:27 76° NE 06:41:15 10° SE
Coronas F rocket 1.1 06:32:09 17° N 06:33:54 72° ENE 06:36:18 10° SSE
Cosmos 1626 2.0 06:30:12 10° NNW 06:33:56 67° W 06:37:38 10° S
Cosmos 1464 Rocket 4.0 06:27:53 10° SSW 06:34:13 77° WNW 06:40:32 10° N
Cosmos 1666 Rocket 3.5 06:34:52 10° NNW 06:39:19 71° W 06:43:45 10° S
Cosmos 2082 Rocket 4.4 06:38:17 10° NNW 06:41:26 15° NNE 06:44:36 10° NE
Meteor 1-29 3.0 06:37:57 10° SSE 06:41:28 85° ENE 06:45:00 10° NNW
ATLAS CENTAUR R/B 3.2 06:38:56 20° NW 06:41:34 53° NNE 06:51:13 10° E
Cosmos 1943 3.2 06:38:16 10° NW 06:43:57 72° WSW 06:49:38 10° SSE
Cosmos 923 Rocket 4.4 06:42:32 11° NW 06:47:16 44° WSW 06:52:13 10° S
Meteor 2-1 Rocket 4.2 06:42:26 10° SSW 06:48:02 66° WNW 06:53:49 10° N
Cosmos 1933 Rocket 4.0 06:46:28 10° N 06:50:56 65° ENE 06:55:21 10° SSE
Ariane Rocket 3.3 06:46:11 10° N 06:50:59 42° WNW 06:55:47 10° SW
Meteor 2-12 Rocket 4.5 06:45:48 10° SSW 06:51:52 61° WNW 06:58:00 10° N
Cosmos 2221 2.7 06:48:50 10° SSW 06:53:03 49° WNW 06:57:15 10° N
BREEZE-M DEB (TANK) 2.9 06:51:37 15° W 06:53:42 34° SSW 06:55:41 10° SE
COSMOS 2406 4.3 06:48:50 10° NNW 06:54:21 43° NE 06:59:50 10° ESE
Cosmos 1680 Rocket 3.8 06:51:28 10° NW 06:56:33 48° WSW 07:01:38 10° S
USA 234 4.0 06:50:36 10° SSE 06:56:33 36° SW 07:02:07 12° WNW
CSL-04 Debris 4.3 06:54:00 10° N 06:59:20 52° WNW 07:04:37 10° SW
Aureole 1 4.4 06:56:30 10° SW 06:59:42 68° WNW 07:03:40 10° NNE
Cosmos 389 Rocket 2.8 06:56:16 10° S 06:59:56 74° E 07:03:38 10° NNE
Cosmos 2058 4.3 07:00:23 11° NW 07:02:58 19° W 07:05:52 10° SW
CORIOLIS 4.2 06:57:34 10° NNE 07:03:01 88° ESE 07:08:28 10° SSW
Cosmos 1908 3.2 06:59:20 10° S 07:03:10 90° ENE 07:07:02 10° N
MONITOR-E 4.4 07:00:15 10° NNE 07:03:26 78° ESE 07:06:36 10° S
MSX 4.0 06:59:24 10° NNE 07:05:12 83° ESE 07:11:00 10° SSW
AQUARIUS 4.1 07:01:13 10° N 07:05:43 67° WNW 07:10:12 10° SSW
Cosmos 192 4.4 07:05:27 10° NNW 07:10:27 85° WSW 07:15:25 10° SSE
Cosmos 1470 Rocket 3.5 07:07:22 10° NNW 07:11:42 76° W 07:16:01 10° S
Cosmos 2228 Rocket 3.1 07:10:50 10° S 07:15:17 88° W 07:19:44 10° N
Iridium 4 Rocket 3.1 07:11:33 10° N 07:15:46 86° E 07:20:09 10° S
Cosmos 2263 Rocket 3.1 07:12:12 10° S 07:17:44 56° ESE 07:23:19 10° NE
PAYLOAD A 4.4 07:13:36 10° N 07:18:21 38° WNW 07:22:55 10° SW
CZ-2C R/B 2.5 07:14:49 10° N 07:19:17 47° WNW 07:23:40 10° SW
SeaSat 1 4.2 07:18:34 10° N 07:21:14 15° NNW 07:23:54 10° WNW
Cosmos 1892 4.5 07:19:36 10° N 07:23:05 32° ENE 07:26:33 10° SE
Helios 1B rocket 3.4 07:23:24 10° SSW 07:26:57 28° W 07:30:32 10° NW
SMAP 3.3 07:22:35 10° N 07:27:03 46° WNW 07:31:30 10° SW
CSL-04 Rocket 4.4 07:25:08 10° N 07:29:38 28° WNW 07:34:06 10° WSW
Cosmos 1634 Rocket 4.1 07:25:07 10° S 07:31:27 89° E 07:37:46 10° N
